Regional Weather Roundup
Issued by NWS Sioux Falls, SD

Home | Current Version | Previous Version | Text Only | Print | Product List | Glossary Off
Versions: 1 2 3 4 5 6 7 8 9 10 11 12 13 14 15 16 17 18 19 20 21 22 23 24 25 26 27 28 29 30 31 32 33 34 35 36 37 38 39 40 41 42 43 44 45 46 47 48 49 50

000
ASUS43 KFSD 182010
RWRFSD

WEATHER ROUNDUP FOR SE SOUTH DAKOTA/SW MINNESOTA/NW IOWA
NATIONAL WEATHER SERVICE SIOUX FALLS SD
300 PM CDT THU SEP 18 2014

NOTE: "FAIR" INDICATES FEW OR NO CLOUDS BELOW 12,000 FEET WITH NO
SIGNIFICANT WEATHER AND OR OBSTRUCTIONS TO VISIBILITY.


SDZ038>040-050-052>070-182100-
SOUTHEAST SOUTH DAKOTA

CITY           SKY/WX    TMP DP  RH WIND       PRES   REMARKS
CHAMBERLAIN    SUNNY     75  60  60 S17G25    29.87F
HURON          PTSUNNY   76  60  57 S16G23    29.89F
MADISON        FAIR      73  57  56 S17G23    29.95F
MITCHELL       PTSUNNY   75  61  61 S14       29.91F
SIOUX FALLS    MOSUNNY   77  54  44 S18G25    29.96F
WINNER         FAIR      82  57  42 S20G28    29.86F
YANKTON        SUNNY     73  57  56 S18       29.94F
$$

MNZ071-072-080-081-089-090-097-098-182100-
SOUTHWEST MINNESOTA

CITY           SKY/WX    TMP DP  RH WIND       PRES   REMARKS
FAIRMONT       SUNNY     73  46  38 S12       30.02F
JACKSON        SUNNY     73  52  46 S13       30.02F
LUVERNE        SUNNY     77  52  41 S15       29.99S
MARSHALL       MOSUNNY   75  52  43 S18G25    29.96F
MONTEVIDEO     MOSUNNY   77  55  47 S8G17     29.96F
PIPESTONE      SUNNY     75  52  43 S18       29.98F
REDWOOD FALLS  MOSUNNY   76  52  43 SE14      29.98F
TRACY          MOSUNNY   75  55  48 S12G20    29.99F
WINDOM         SUNNY     73  52  46 SE12      30.00F
WORTHINGTON    SUNNY     73  52  46 S14       30.01F
$$

IAZ001>003-012>014-020>022-031-032-NEZ013-014-SDZ071-182100-
NORTHWEST IOWA

CITY           SKY/WX    TMP DP  RH WIND       PRES   REMARKS
CHEROKEE       SUNNY     74  51  45 SE12      30.00F
DENISON        SUNNY     73  57  56 S8G16     29.99F
ESTHERVILLE    SUNNY     72  52  49 S13G21    30.01F
LE MARS        SUNNY     73  57  56 SE10G17   29.99F
ORANGE CITY    SUNNY     75  54  46 S8        29.99F
SHELDON        SUNNY     73  55  53 SE13G18   29.98F
SIOUX CITY     SUNNY     77  57  50 S7        29.98F
SPENCER        SUNNY     73  52  47 SE9G20    30.01F
STORM LAKE     SUNNY     72  57  60 SE13      30.02F
$$

ABBREVIATIONS USED IN REMARKS
   TC - TEMPERATURE IN CELSIUS
  WCI - WIND CHILL INDEX
   HX - HEAT INDEX
  VSB - VISIBILITY




USA.gov is the U.S. government's official web portal to all federal, state and local government web resources and services.